Regional Weather Roundup
Issued by NWS

Home | Current Version | Previous Version | Graphics & Text | Print | Product List | Glossary On
Versions: 1 2 3 4 5 6 7 8 9 10 11 12 13 14 15 16 17 18 19 20 21 22 23 24 25 26 27 28 29 30 31 32 33 34 35 36 37 38 39 40 41 42 43 44 45 46 47 48 49 50
000
ASUS43 KIND 232359
RWRIN

WEATHER ROUNDUP FOR INDIANA
NATIONAL WEATHER SERVICE INDIANAPOLIS IN
700 PM EST FRI FEB 23 2018

NOTE: "FAIR" INDICATES FEW OR NO CLOUDS BELOW 12,000 FEET WITH NO
SIGNIFICANT WEATHER AND/OR OBSTRUCTIONS TO VISIBILITY.

* - STATION DOES NOT REPORT WEATHER SUCH AS PRECIPITATION OR FOG.

+ - STATION NOT QUALITY CONTROLLED BY THE NATIONAL WEATHER SERVICE.
    USE DATA WITH CAUTION...ESPECIALLY DEWPOINT AND RELATIVE
    HUMIDITY OBSERVATIONS.

INZ001>003-010>013-019-020-240100-
NORTHWEST INDIANA

CITY           SKY/WX    TMP DP  RH WIND       PRES   REMARKS
GARY /AIRPORT/ CLOUDY    39  34  81 W12       30.26R WCI  32
MONTICELLO +   CLOUDY    41  40  96 NW12      30.25R
6HR MIN TEMP:  41; 6HR MAX TEMP:  47;


$$

LMZ046-743>745-240100-
SOUTHERN LAKE MICHIGAN

STATION/POSITION TIME  TEMP    WIND        PRES    WAVE
                       AIR SEA DIR/SP/G            HT
                 (UTC) (F)     (DEG/KT/KT) (MB)    (FT)
BURNS HARBOR     2340   38     250/ 12/ 13 1024.7R
MICHIGAN CITY    2330   36     240/ 15/ 16   N/A

$$

INZ004-005-014>016-021>024-240100-
NORTH CENTRAL INDIANA

CITY           SKY/WX    TMP DP  RH WIND       PRES   REMARKS
GOSHEN         CLOUDY    42  39  89 W13       30.22R
6HR MIN TEMP:  42; 6HR MAX TEMP:  47;

SOUTH BEND     CLOUDY    39  36  89 NW12      30.24R WCI  32
6HR MIN TEMP:  39; 6HR MAX TEMP:  45;

WARSAW +       CLOUDY    43  41  93 N7        30.23R

$$

INZ006>009-017-018-025>027-240100-
NORTHEAST INDIANA

CITY           SKY/WX    TMP DP  RH WIND       PRES   REMARKS
FORT WAYNE     CLOUDY    46  43  89 W14       30.23R
6HR MIN TEMP:  46; 6HR MAX TEMP:  53;

KENDALLVILLE + CLOUDY    43  42  97 W7        30.22R

$$

INZ028-029-035-036-043>045-051>053-240100-
WEST CENTRAL INDIANA

CITY           SKY/WX    TMP DP  RH WIND       PRES   REMARKS
GREENCASTLE +  CLOUDY    46  43  87 NW3       30.25S
LAFAYETTE      CLOUDY    43  40  89 W9        30.25S
6HR MIN TEMP:  43; 6HR MAX TEMP:  48;

TERRE HAUTE    CLOUDY    48  45  89 N7        30.25S
6HR MIN TEMP:  48; 6HR MAX TEMP:  53;


$$

INZ030>032-037>040-046>048-054>057-064-065-240100-
CENTRAL INDIANA

CITY           SKY/WX    TMP DP  RH WIND       PRES   REMARKS
COLUMBUS       CLEAR     54 N/A N/A SW6       30.24R
INDIANAPOLIS   CLOUDY    49  46  90 NW8       30.25R
6HR MIN TEMP:  49; 6HR MAX TEMP:  55;

-EAGLE CREEK   CLOUDY    49  44  83 NW10      30.24R
6HR MIN TEMP:  49; 6HR MAX TEMP:  55;

KOKOMO +       CLOUDY    44  42  93 NW12      30.23F
6HR MIN TEMP:  44; 6HR MAX TEMP:  50;

MT COMFORT *+  CLOUDY    48  48 100 W10       30.25R
SHELBYVILLE    CLOUDY    54  49  83 W5        30.23R
6HR MIN TEMP:  54; 6HR MAX TEMP:  57;


$$

INZ033-034-041-042-049-050-058-059-240100-
EAST CENTRAL INDIANA

CITY           SKY/WX    TMP DP  RH WIND       PRES   REMARKS
MUNCIE         CLOUDY    50  45  83 W9        30.23R
6HR MIN TEMP:  50; 6HR MAX TEMP:  58;

RICHMOND +     FAIR      52  52 100 W8        30.23R

$$

INZ060-061-067>069-081>083-085>088-240100-
SOUTHWEST INDIANA

CITY           SKY/WX    TMP DP  RH WIND       PRES   REMARKS
EVANSVILLE     FAIR      51  49  92 CALM      30.24F
6HR MIN TEMP:  51; 6HR MAX TEMP:  54; 6HR PCP: TRACE;

HUNTINGBURG +  FAIR      52  50  93 N3        30.24S
6HR MIN TEMP:  52; 6HR MAX TEMP:  55; 6HR PCP: TRACE;


$$

INZ062-063-066-070>080-084-089>092-240100-
SOUTH CENTRAL AND SOUTHEAST INDIANA

CITY           SKY/WX    TMP DP  RH WIND       PRES   REMARKS
BLOOMINGTON    CLOUDY    52  48  86 W3        30.23S
6HR MIN TEMP:  52; 6HR MAX TEMP:  54;

FRENCH LICK *+ FAIR      50 N/A N/A W3        30.24R
SEYMOUR +      FAIR      54  52  94 CALM      30.23S

$$





USA.gov is the U.S. government's official web portal to all federal, state and local government web resources and services.